• In Portugal
  • List of Countries
  • For 7 days
  • Water Temperature
  • Satellite Maps
  • Weather Map
  • Weather Widgets
  • user-avatar
    Login

    Hourly Weather Agadez

    Today, 15 December, Friday

    Time Temperature Precipitation Wind Pressure Humidity
    00:00 +26°C° 0 mm 5 mps 719 mmHg 17%
    01:00 +25°C° 0 mm 5 mps 719 mmHg 17%
    02:00 +25°C° 0 mm 5 mps 718 mmHg 17%
    03:00 +25°C° 0 mm 5 mps 718 mmHg 17%
    04:00 +25°C° 0 mm 5 mps 718 mmHg 17%
    05:00 +25°C° 0 mm 5 mps 718 mmHg 17%
    06:00 +25°C° 0 mm 5 mps 718 mmHg 17%
    07:00 +23°C° 0 mm 6 mps 718 mmHg 17%
    08:00 +26°C° 0 mm 6 mps 719 mmHg 16%
    09:00 +28°C° 0 mm 7 mps 719 mmHg 14%
    10:00 +31°C° 0 mm 8 mps 720 mmHg 13%
    11:00 +32°C° 0 mm 8 mps 719 mmHg 12%
    12:00 +33°C° 0 mm 8 mps 719 mmHg 12%
    13:00 +35°C° 0 mm 8 mps 718 mmHg 11%
    14:00 +35°C° 0 mm 7 mps 718 mmHg 11%
    15:00 +35°C° 0 mm 7 mps 717 mmHg 11%
    16:00 +35°C° 0 mm 7 mps 717 mmHg 11%
    17:00 +33°C° 0 mm 6 mps 717 mmHg 13%
    18:00 +30°C° 0 mm 5 mps 717 mmHg 14%
    19:00 +29°C° 0 mm 5 mps 717 mmHg 16%
    20:00 +28°C° 0 mm 5 mps 718 mmHg 16%
    21:00 +27°C° 0 mm 5 mps 718 mmHg 17%
    22:00 +27°C° 0 mm 5 mps 718 mmHg 18%
    23:00 +26°C° 0 mm 5 mps 718 mmHg 19%

    Tomorrow, 16 December, Saturday

    Time Temperature Precipitation Wind Pressure Humidity
    00:00 +26°C° 0 mm 5 mps 718 mmHg 19%
    01:00 +25°C° 0 mm 5 mps 718 mmHg 20%
    02:00 +25°C° 0 mm 5 mps 718 mmHg 20%
    03:00 +25°C° 0 mm 5 mps 718 mmHg 20%
    04:00 +23°C° 0 mm 6 mps 717 mmHg 21%
    05:00 +23°C° 0 mm 6 mps 717 mmHg 21%
    06:00 +23°C° 0 mm 6 mps 718 mmHg 21%
    07:00 +22°C° 0 mm 5 mps 718 mmHg 21%
    08:00 +24°C° 0 mm 6 mps 718 mmHg 18%
    09:00 +27°C° 0 mm 7 mps 719 mmHg 16%
    10:00 +29°C° 0 mm 8 mps 720 mmHg 13%
    11:00 +32°C° 0 mm 8 mps 719 mmHg 12%
    12:00 +33°C° 0 mm 8 mps 719 mmHg 11%
    13:00 +34°C° 0 mm 7 mps 718 mmHg 10%
    14:00 +34°C° 0 mm 7 mps 718 mmHg 10%
    15:00 +34°C° 0 mm 7 mps 717 mmHg 10%
    16:00 +34°C° 0 mm 7 mps 717 mmHg 10%
    17:00 +33°C° 0 mm 6 mps 717 mmHg 11%
    18:00 +30°C° 0 mm 5 mps 717 mmHg 12%
    19:00 +28°C° 0 mm 5 mps 717 mmHg 13%
    20:00 +27°C° 0 mm 5 mps 718 mmHg 13%
    21:00 +27°C° 0 mm 5 mps 718 mmHg 13%
    22:00 +26°C° 0 mm 4 mps 718 mmHg 14%
    23:00 +25°C° 0 mm 4 mps 718 mmHg 14%

    Day after tomorrow, 17 December, Sunday

    Time Temperature Precipitation Wind Pressure Humidity
    00:00 +25°C° 0 mm 4 mps 718 mmHg 15%
    01:00 +23°C° 0 mm 4 mps 717 mmHg 15%
    02:00 +24°C° 0 mm 3 mps 717 mmHg 16%
    03:00 +24°C° 0 mm 3 mps 716 mmHg 16%
    04:00 +22°C° 0 mm 3 mps 716 mmHg 16%
    05:00 +22°C° 0 mm 3 mps 716 mmHg 17%
    06:00 +21°C° 0 mm 3 mps 717 mmHg 18%
    07:00 +21°C° 0 mm 3 mps 717 mmHg 18%
    08:00 +24°C° 0 mm 3 mps 718 mmHg 16%
    09:00 +27°C° 0 mm 3 mps 718 mmHg 14%
    10:00 +29°C° 0 mm 4 mps 719 mmHg 12%
    11:00 +30°C° 0 mm 4 mps 718 mmHg 11%
    12:00 +33°C° 0 mm 4 mps 718 mmHg 10%
    13:00 +34°C° 0 mm 4 mps 717 mmHg 9%
    14:00 +34°C° 0 mm 4 mps 717 mmHg 9%
    15:00 +34°C° 0 mm 4 mps 716 mmHg 8%
    16:00 +34°C° 0 mm 4 mps 716 mmHg 8%
    17:00 +33°C° 0 mm 4 mps 716 mmHg 8%
    18:00 +30°C° 0 mm 4 mps 716 mmHg 9%
    19:00 +28°C° 0 mm 4 mps 716 mmHg 10%
    20:00 +27°C° 0 mm 4 mps 717 mmHg 11%
    21:00 +26°C° 0 mm 4 mps 717 mmHg 12%
    22:00 +25°C° 0 mm 4 mps 717 mmHg 13%
    23:00 +25°C° 0 mm 4 mps 717 mmHg 15%

    18 December, Monday

    Time Temperature Precipitation Wind Pressure Humidity
    00:00 +23°C° 0 mm 4 mps 717 mmHg 16%
    01:00 +23°C° 0 mm 4 mps 717 mmHg 17%
    02:00 +22°C° 0 mm 4 mps 716 mmHg 18%
    03:00 +22°C° 0 mm 4 mps 716 mmHg 19%
    04:00 +22°C° 0 mm 4 mps 716 mmHg 20%
    05:00 +21°C° 0 mm 4 mps 716 mmHg 21%
    06:00 +21°C° 0 mm 4 mps 716 mmHg 22%
    07:00 +21°C° 0 mm 3 mps 716 mmHg 22%
    08:00 +23°C° 0 mm 4 mps 717 mmHg 20%
    09:00 +27°C° 0 mm 4 mps 717 mmHg 17%
    10:00 +29°C° 0 mm 5 mps 718 mmHg 14%
    11:00 +30°C° 0 mm 4 mps 717 mmHg 13%
    12:00 +33°C° 0 mm 4 mps 717 mmHg 12%
    13:00 +34°C° 0 mm 3 mps 716 mmHg 10%
    14:00 +34°C° 0 mm 3 mps 716 mmHg 10%
    15:00 +34°C° 0 mm 3 mps 715 mmHg 10%
    16:00 +35°C° 0 mm 3 mps 715 mmHg 9%
    17:00 +33°C° 0 mm 3 mps 715 mmHg 11%
    18:00 +30°C° 0 mm 3 mps 715 mmHg 12%
    19:00 +28°C° 0 mm 3 mps 715 mmHg 13%
    20:00 +27°C° 0 mm 3 mps 715 mmHg 14%
    21:00 +27°C° 0 mm 3 mps 716 mmHg 14%
    22:00 +26°C° 0 mm 3 mps 716 mmHg 15%
    23:00 +25°C° 0 mm 3 mps 716 mmHg 16%

    19 December, Tuesday

    Time Temperature Precipitation Wind Pressure Humidity
    00:00 +25°C° 0 mm 3 mps 715 mmHg 16%
    01:00 +24°C° 0 mm 3 mps 715 mmHg 17%
    02:00 +22°C° 0 mm 3 mps 715 mmHg 17%
    03:00 +23°C° 0 mm 2 mps 715 mmHg 18%
    04:00 +21°C° 0 mm 2 mps 715 mmHg 18%
    05:00 +21°C° 0 mm 2 mps 715 mmHg 19%
    06:00 +21°C° 0 mm 2 mps 715 mmHg 19%
    07:00 +20°C° 0 mm 2 mps 715 mmHg 19%
    08:00 +24°C° 0 mm 2 mps 716 mmHg 17%
    09:00 +26°C° 0 mm 2 mps 716 mmHg 15%
    10:00 +29°C° 0 mm 2 mps 717 mmHg 12%
    11:00 +30°C° 0 mm 2 mps 717 mmHg 11%
    12:00 +31°C° 0 mm 1 mps 716 mmHg 11%
    13:00 +33°C° 0 mm 1 mps 716 mmHg 10%
    14:00 +33°C° 0 mm 1 mps 715 mmHg 10%
    15:00 +33°C° 0 mm 1 mps 715 mmHg 9%
    16:00 +34°C° 0 mm 1 mps 714 mmHg 9%
    17:00 +32°C° 0 mm 1 mps 715 mmHg 10%
    18:00 +30°C° 0 mm 1 mps 715 mmHg 12%
    19:00 +28°C° 0 mm 1 mps 715 mmHg 13%
    20:00 +27°C° 0 mm 1 mps 715 mmHg 13%
    21:00 +27°C° 0 mm 1 mps 715 mmHg 14%
    22:00 +26°C° 0 mm 2 mps 716 mmHg 14%
    23:00 +26°C° 0 mm 2 mps 715 mmHg 15%

    20 December, Wednesday

    Time Temperature Precipitation Wind Pressure Humidity
    00:00 +25°C° 0 mm 2 mps 715 mmHg 15%
    01:00 +24°C° 0 mm 1 mps 715 mmHg 15%
    02:00 +24°C° 0 mm 2 mps 715 mmHg 15%
    03:00 +24°C° 0 mm 2 mps 715 mmHg 15%
    04:00 +23°C° 0 mm 2 mps 714 mmHg 15%
    05:00 +23°C° 0 mm 2 mps 715 mmHg 15%
    06:00 +21°C° 0 mm 2 mps 715 mmHg 15%
    07:00 +21°C° 0 mm 2 mps 715 mmHg 15%
    08:00 +24°C° 0 mm 2 mps 716 mmHg 13%
    09:00 +27°C° 0 mm 2 mps 716 mmHg 11%
    10:00 +29°C° 0 mm 2 mps 717 mmHg 9%
    11:00 +30°C° 0 mm 2 mps 716 mmHg 9%
    12:00 +32°C° 0 mm 2 mps 716 mmHg 9%
    13:00 +34°C° 0 mm 2 mps 716 mmHg 8%
    14:00 +34°C° 0 mm 2 mps 715 mmHg 9%
    15:00 +35°C° 0 mm 2 mps 715 mmHg 9%
    16:00 +35°C° 0 mm 2 mps 715 mmHg 9%
    17:00 +32°C° 0 mm 2 mps 715 mmHg 10%
    18:00 +31°C° 0 mm 2 mps 715 mmHg 12%
    19:00 +29°C° 0 mm 2 mps 715 mmHg 13%
    20:00 +28°C° 0 mm 2 mps 716 mmHg 13%
    21:00 +28°C° 0 mm 2 mps 716 mmHg 14%
    22:00 +27°C° 0 mm 2 mps 716 mmHg 14%
    23:00 +26°C° 0 mm 2 mps 716 mmHg 15%
    Show more